ATLAS 5 CENTAUR DEB, 43961

Orbit data source: Space-Track

ATLAS 5 CENTAUR DEB, 43961 is space debris in HEO originally from a launch on Wed, 17 Sep 2014 UTC launched from the Air Force Eastern Test Range (AFETR). Debris objects in space refer to the collection of defunct objects orbiting the Earth. Examples of debris include non-operational satellites, rocket bodies, and fragments generated from explosions, collisions, or faulty payload assembly.

Loading next visibility...
Identifier
43961, 2014-055Q
Orbit
HEO
Country
Flag of USUS
Related business
Flag of USUnited Launch Alliance/Lockheed Martin (US)
Manufacturer
Unknown
Mission
Spacecraft
Bus & Motor
Unknown
Mass
Unknown
Launch date (UTC)
2014-09-17 (11 years ago)
Launch vehicle
Unknown
Launch site
Air Force Eastern Test Range (AFETR)
Object type
Payload
Rocket body
Debris
Shape & HBR
Unknown
Radar Cross Section
Small (<0.1 m²)

Expand to show TLE details & history
Last TLE update: 1 week ago

TLE from 1 week ago
0 ATLAS 5 CENTAUR DEB
1 43961U 14055Q   25251.20240269  .00000010  00000-0  00000-0 0  9999
2 43961  19.6146 169.8844 4877900 118.0023 299.2273  1.85321060 47463
Epoch: 2025-09-08T04:51Z
TLE epoch observation values (Epoch: 2025-09-08T04:51:27.592Z)
Latitude
0.00002°
Longitude
109.4444°
Altitude
21,343.319 km
Speed
3.811 km/s
True Right ascension
11h 19m 16s
True Declination
0° 00' 00"
Sunlit
Object was in daylight at epoch
Visualization orbit readout
Latitude
Unknown
Longitude
Unknown
Altitude
Unknown
Speed
Unknown
Apparent Right ascension
Unknown
Apparent Declination
Unknown
Sunlit
N/A
Visualization observer readout
Local Sidereal Time
19:50:15
Azimuth
Unknown
Elevation
Unknown
Doppler factor
Unknown
Orbital elements
Apogee altitude
35,279.155 km
Perigee altitude
7,963.458 km
Semi-major axis
27,999.444 km
Eccentricity
0.48779
Inclination
19.6146°
RAAN
169.8844°
Arg. of periapsis
118.0023°
True anomaly
241.93342°
Mean anomaly
299.2273°
Eccentric anomaly
271.28603°
Mean motion
0.46325 °/min
Orbital period
777.11 mins
BSTAR
0
Loading maneuver chart data...
Computing Atmospheric mass density...

Documentation

Showing up to 5 results
|